Weather History for KMRB - January, 2012

Change the Weather History Date:

Sunday, January 29, 2012

  Actual Average Record
Temperature  
Mean Temperature 38 °F 31 °F  
Max Temperature 46 °F 40 °F 76 °F (1975)
Min Temperature 30 °F 23 °F -12 °F (1963)
Degree Days  
Heating Degree Days 27 34  
Month to date heating degree days 841 986  
Since 1 July heating degree days 2463 3012  
Cooling Degree Days 0 0  
Month to date cooling degree days 0 0  
Year to date cooling degree days 0 0  
Moisture  
Dew Point 16 °F    
Average Humidity 51    
Maximum Humidity 75    
Minimum Humidity 27    
Precipitation  
Precipitation 0.03 in 0.09 in 1.60 in (1939)
Month to date precipitation 2.07 2.27  
Year to date precipitation 2.07 2.27  
Sea Level Pressure  
Sea Level Pressure 30.17 in    
Wind  
Wind Speed 10 mph (SW)    
Max Wind Speed 32 mph    
Max Gust Speed 40 mph    
Visibility 9 miles    
Events Snow    
T = Trace of Precipitation, MM = Missing Value Source: NWS Daily Summary

Daily Weather History Graph

Daily Weather History Graph

Search for Another Location

Airport or City:

Trip Planner

Search our weather history database for the weather conditions in past years. The results will help you decide how hot, cold, wet, or windy it might be!

Date:

Astronomy

Jan. 29, 2012 Rise Set
Actual Time 7:22 AM EST 5:28 PM EST
Civil Twilight 6:53 AM EST 5:56 PM EST
Nautical Twilight 6:21 AM EST 6:29 PM EST
Astronomical Twilight 5:49 AM EST 7:00 PM EST
Moon 10:14 AM EST (1/29) No Moon Set
Length of Visible Light 11h 03m
Length of Day
10h 05m
Waxing Crescent, 36% of the Moon is Illuminated
Jan 29
Waxing Crescent
Jan 30
First Quarter
Feb 7
Full
Feb 14
Last Quarter
Feb 21
New

Hourly Weather History & Observations

Time (EST) Temp. Windchill Dew Point Humidity Pressure Visibility Wind Dir Wind Speed Gust Speed Precip Events Conditions
12:53 AM 33.1 °F 26.9 °F 8.1 °F 35% 30.20 in 10.0 mi WSW 6.9 mph - N/A   Clear
1:53 AM 30.2 °F 22.6 °F 10.4 °F 44% 30.20 in 10.0 mi West 8.1 mph - N/A   Clear
2:53 AM 32.0 °F 26.4 °F 9.0 °F 38% 30.22 in 10.0 mi WSW 5.8 mph - N/A   Clear
3:53 AM 30.9 °F 23.5 °F 9.0 °F 40% 30.23 in 10.0 mi WSW 8.1 mph - N/A   Clear
4:53 AM 30.9 °F 25.2 °F 9.0 °F 40% 30.25 in 10.0 mi WSW 5.8 mph - N/A   Clear
5:53 AM 30.0 °F 25.2 °F 9.0 °F 41% 30.25 in 10.0 mi SSW 4.6 mph - N/A   Clear
6:53 AM 30.9 °F 26.2 °F 9.0 °F 40% 30.27 in 10.0 mi SSW 4.6 mph - N/A   Clear
7:53 AM 30.0 °F 25.2 °F 9.0 °F 41% 30.27 in 10.0 mi SSW 4.6 mph - N/A   Clear
8:53 AM 33.1 °F 28.7 °F 12.0 °F 42% 30.27 in 10.0 mi South 4.6 mph - N/A   Clear
9:53 AM 37.9 °F 31.5 °F 10.9 °F 33% 30.26 in 10.0 mi WSW 9.2 mph 18.4 mph N/A   Clear
10:53 AM 39.0 °F 31.8 °F 12.0 °F 33% 30.25 in 10.0 mi South 11.5 mph - N/A   Clear
11:53 AM 39.2 °F 32.5 °F 10.4 °F 31% 30.21 in 10.0 mi SSW 10.4 mph 19.6 mph N/A   Clear
12:53 PM 43.0 °F 36.0 °F 10.9 °F 27% 30.18 in 10.0 mi South 13.8 mph 24.2 mph N/A   Clear
1:53 PM 45.0 °F 38.5 °F 12.9 °F 27% 30.14 in 10.0 mi SSW 13.8 mph 24.2 mph N/A   Clear
2:53 PM 45.0 °F 38.2 °F 12.0 °F 26% 30.11 in 10.0 mi SSW 15.0 mph 21.9 mph N/A   Mostly Cloudy
3:53 PM 44.6 °F 39.2 °F 12.2 °F 27% 30.07 in 10.0 mi SSW 10.4 mph 19.6 mph N/A   Overcast
4:53 PM 45.0 °F 41.8 °F 12.9 °F 27% 30.07 in 10.0 mi South 5.8 mph - N/A   Mostly Cloudy
5:53 PM 42.1 °F 37.1 °F 14.0 °F 32% 30.06 in 10.0 mi South 8.1 mph - N/A   Scattered Clouds
6:53 PM 41.0 °F 34.7 °F 12.9 °F 32% 30.04 in 10.0 mi South 10.4 mph - N/A   Clear
7:53 PM 39.9 °F 33.9 °F 15.1 °F 36% 30.06 in 10.0 mi West 9.2 mph - N/A   Overcast
8:53 PM 44.1 °F 35.2 °F 17.1 °F 34% 30.08 in 10.0 mi West 23.0 mph 32.2 mph N/A   Overcast
9:20 PM 35.6 °F 23.4 °F 30.2 °F 81% 30.12 in 1.8 mi WNW 25.3 mph 40.3 mph 0.01 in Snow Light Snow
9:24 PM 33.8 °F 21.9 °F 30.2 °F 87% 30.13 in 1.0 mi WNW 21.9 mph 38.0 mph 0.01 in Snow Light Snow
9:31 PM 33.8 °F 22.8 °F 30.2 °F 87% 30.14 in 0.8 mi NW 18.4 mph 27.6 mph 0.02 in Snow Light Snow
9:41 PM 33.8 °F 22.8 °F 28.4 °F 81% 30.13 in 2.0 mi WNW 18.4 mph 27.6 mph 0.02 in Snow Light Snow
9:49 PM 33.8 °F 23.2 °F 28.4 °F 81% 30.13 in 9.0 mi WNW 17.3 mph 27.6 mph 0.03 in   Overcast
9:53 PM 34.0 °F 22.1 °F 27.0 °F 75% 30.15 in 9.0 mi West 21.9 mph 27.6 mph 0.03 in   Overcast
10:53 PM 33.1 °F 22.6 °F 24.1 °F 70% 30.17 in 10.0 mi West 16.1 mph 21.9 mph N/A   Scattered Clouds
11:53 PM 30.9 °F 23.5 °F 24.1 °F 76% 30.20 in 10.0 mi WSW 8.1 mph - N/A   Mostly Cloudy